Weather History for Logan, UT

Change the Weather History Date:

Wednesday, February 12, 2014

  Actual Average Record
Temperature  
Mean Temperature 36 °F -  
Max Temperature 41 °F 36 °F 53 °F (1962)
Min Temperature 30 °F 17 °F -14 °F (2004)
Degree Days  
Heating Degree Days 30    
Moisture  
Dew Point 31 °F    
Average Humidity 81    
Maximum Humidity 89    
Minimum Humidity 63    
Precipitation  
Precipitation 0.04 in - - ()
Sea Level Pressure  
Sea Level Pressure 30.10 in    
Wind  
Wind Speed 6 mph (SSE)    
Max Wind Speed 17 mph    
Max Gust Speed 24 mph    
Visibility 10 miles    
Events Rain    
Averages and records for this station are not official NWS values.
T = Trace of Precipitation, MM = Missing Value Source: NWS Daily Summary

Daily Weather History Graph

Daily Weather History Graph

Search for Another Location

Airport:

Trip Planner

Search our weather history database for the weather conditions in past years. The results will help you decide how hot, cold, wet, or windy it might be!

Date:

Astronomy

Feb. 12, 2014 Rise Set
Actual Time 7:26 AM MST 5:56 PM MST
Civil Twilight 6:58 AM MST 6:25 PM MST
Nautical Twilight 6:25 AM MST 6:58 PM MST
Astronomical Twilight 5:53 AM MST 7:30 PM MST
Moon 4:13 PM MST (2/12) 5:46 AM MST (2/12)
Length of Visible Light 11h 27m
Length of Day
10h 30m
Waxing Gibbous, 96% of the Moon is Illuminated
Feb 12
Waxing Gibbous
Feb 14
Full
Feb 22
Last Quarter
Mar 1
New
Mar 8
First Quarter

Hourly Weather History & Observations

Time (MST) Temp. Windchill Dew Point Humidity Pressure Visibility Wind Dir Wind Speed Gust Speed Precip Events Conditions
12:51 AM 30.9 °F - 28.0 °F 89% 30.23 in 10.0 mi Calm Calm - N/A   Partly Cloudy
1:51 AM 30.9 °F - 28.0 °F 89% 30.20 in 10.0 mi Calm Calm - N/A   Overcast
2:51 AM 32.0 °F 27.5 °F 28.0 °F 85% 30.20 in 10.0 mi NE 4.6 mph - N/A   Overcast
3:51 AM 32.0 °F 28.7 °F 28.0 °F 85% 30.16 in 10.0 mi WSW 3.5 mph - N/A   Mostly Cloudy
4:51 AM 32.0 °F - 28.0 °F 85% 30.14 in 10.0 mi Calm Calm - N/A   Overcast
5:51 AM 35.1 °F 31.0 °F 28.9 °F 78% 30.13 in 10.0 mi East 4.6 mph - N/A   Overcast
6:51 AM 34.0 °F 28.0 °F 28.9 °F 82% 30.13 in 10.0 mi North 6.9 mph - N/A   Overcast
7:51 AM 39.0 °F 36.8 °F 28.0 °F 65% 30.12 in 10.0 mi South 3.5 mph - N/A   Overcast
8:51 AM 39.9 °F 32.5 °F 28.0 °F 63% 30.11 in 10.0 mi South 12.7 mph 18.4 mph N/A   Overcast
9:31 AM 37.9 °F 30.9 °F 30.9 °F 76% 30.11 in 10.0 mi South 10.4 mph - 0.00 in Rain Light Rain
9:51 AM 37.9 °F 30.0 °F 32.0 °F 79% 30.14 in 10.0 mi South 12.7 mph - 0.00 in Rain Light Rain
10:16 AM 37.9 °F 28.5 °F 32.0 °F 79% 30.10 in 10.0 mi South 17.3 mph 21.9 mph 0.00 in   Overcast
10:51 AM 37.9 °F 29.6 °F 32.0 °F 79% 30.12 in 10.0 mi South 13.8 mph 24.2 mph 0.00 in   Overcast
11:51 AM 39.0 °F 31.4 °F 33.1 °F 79% 30.11 in 10.0 mi South 12.7 mph - 0.00 in   Overcast
12:51 PM 39.9 °F 32.1 °F 33.1 °F 77% 30.08 in 10.0 mi South 13.8 mph - 0.00 in Rain Light Rain
1:51 PM 39.9 °F 32.1 °F 34.0 °F 79% 30.04 in 10.0 mi South 13.8 mph - 0.01 in Rain Light Rain
2:51 PM 39.9 °F 32.1 °F 34.0 °F 79% 30.02 in 10.0 mi South 13.8 mph - 0.01 in Rain Light Rain
3:51 PM 41.0 °F 34.7 °F 34.0 °F 76% 30.03 in 10.0 mi SSW 10.4 mph - 0.01 in Rain Light Rain
4:51 PM 37.0 °F 31.0 °F 34.0 °F 89% 30.05 in 10.0 mi NE 8.1 mph - 0.01 in Rain Light Rain
5:51 PM 41.0 °F 35.8 °F 34.0 °F 76% 30.03 in 10.0 mi East 8.1 mph - 0.00 in   Overcast
6:51 PM 39.9 °F 37.8 °F 34.0 °F 79% 30.06 in 10.0 mi North 3.5 mph - N/A   Overcast
7:51 PM 39.0 °F 34.0 °F 34.0 °F 82% 30.04 in 10.0 mi ESE 6.9 mph - N/A   Overcast
8:51 PM 35.1 °F - 32.0 °F 89% 30.06 in 10.0 mi Calm Calm - N/A   Overcast
9:51 PM 36.0 °F 32.1 °F 33.1 °F 89% 30.08 in 10.0 mi SE 4.6 mph - N/A   Overcast
10:51 PM 37.0 °F 34.5 °F 33.1 °F 86% 30.06 in 10.0 mi SSW 3.5 mph - N/A   Overcast
11:51 PM 36.0 °F 31.1 °F 33.1 °F 89% 30.06 in 10.0 mi SSE 5.8 mph - N/A   Overcast